| time (UTC) | temp C | wind direction | speed KPH | gust KPH | rain 1hr cm | rain 24hr cm | rain mn cm | humidity % | barometer mb |
| 20260506062341 | 10 | 136 | 1.6 | 3.2 | 0.05 | 0.86 | 0.84 | 93 | 1009.6 |
| 20260506062228 | 10 | 139 | 1.6 | 3.2 | 0.08 | 0.89 | 0.84 | 92 | 1009.7 |
| 20260506061841 | 10 | 150 | 0.0 | 4.8 | 0.10 | 0.89 | 0.84 | 92 | 1009.7 |
| 20260506061343 | 10 | 134 | 0.0 | 4.8 | 0.15 | 0.89 | 0.84 | 92 | 1009.5 |
| 20260506061231 | 10 | 129 | 0.0 | 4.8 | 0.15 | 0.89 | 0.84 | 93 | 1009.6 |
| 20260506061108 | 10 | 135 | 0.0 | 4.8 | 0.18 | 0.89 | 0.84 | 93 | 1009.6 |
| 20260506060338 | 10 | 142 | 1.6 | 4.8 | 0.23 | 0.89 | 0.84 | 92 | 1009.7 |
| 20260506060227 | 10 | 151 | 1.6 | 4.8 | 0.25 | 0.89 | 0.84 | 93 | 1009.7 |
| 20260506051339 | 10 | 39 | 4.8 | 14.5 | 0.51 | 0.74 | 0.71 | 92 | 1009.6 |
| 20260506051228 | 10 | 32 | 6.4 | 14.5 | 0.51 | 0.74 | 0.71 | 92 | 1009.6 |
| 20260506050837 | 10 | 33 | 6.4 | 14.5 | 0.51 | 0.71 | 0.66 | 93 | 1009.4 |
| 20260506050336 | 10 | 62 | 3.2 | 14.5 | 0.43 | 0.64 | 0.61 | 93 | 1009.4 |
| 20260506050227 | 10 | 80 | 3.2 | 14.5 | 0.43 | 0.61 | 0.61 | 93 | 1009.5 |
| 20260506044835 | 10 | 125 | 3.2 | 9.7 | 0.33 | 0.51 | 0.48 | 93 | 1009.6 |
| 20260506044355 | 10 | 112 | 3.2 | 8.0 | 0.28 | 0.43 | 0.41 | 92 | 1009.5 |
| 20260506044346 | 10 | 123 | 3.2 | 9.7 | 0.33 | 0.48 | 0.43 | 92 | 1009.6 |
| 20260506044332 | 10 | 122 | 3.2 | 8.0 | 0.33 | 0.48 | 0.43 | 92 | 1009.7 |
| 20260506043605 | 10 | 130 | 1.6 | 9.7 | 0.23 | 0.41 | 0.36 | 92 | 1009.6 |
| 20260506043228 | 10 | 120 | 1.6 | 9.7 | 0.23 | 0.41 | 0.33 | 92 | 1009.7 |
| 20260506043112 | 10 | 132 | 1.6 | 9.7 | 0.18 | 0.38 | 0.30 | 92 | 1009.6 |
| 20260506042349 | 10 | 62 | 3.2 | 12.9 | 0.10 | 0.36 | 0.23 | 93 | 1009.7 |
| 20260506042342 | 10 | 68 | 3.2 | 9.7 | 0.15 | 0.38 | 0.25 | 92 | 1009.7 |
| 20260506042328 | 10 | 76 | 3.2 | 9.7 | 0.13 | 0.38 | 0.23 | 93 | 1009.7 |
| 20260506041337 | 10 | 49 | 3.2 | 12.9 | 0.05 | 0.36 | 0.18 | 93 | 1009.7 |
| 20260506041227 | 10 | 42 | 3.2 | 12.9 | 0.05 | 0.36 | 0.18 | 93 | 1009.8 |
| 20260506040836 | 10 | 33 | 4.8 | 12.9 | 0.05 | 0.36 | 0.15 | 93 | 1009.7 |
| 20260506040335 | 10 | 58 | 4.8 | 12.9 | 0.05 | 0.41 | 0.15 | 93 | 1009.8 |
| 20260506040228 | 10 | 61 | 3.2 | 12.9 | 0.05 | 0.38 | 0.15 | 93 | 1009.8 |
| 20260506035837 | 10 | 80 | 3.2 | 9.7 | 0.05 | 0.41 | 0.15 | 93 | 1009.8 |
| 20260506035336 | 10 | 155 | 1.6 | 6.4 | 0.05 | 0.41 | 0.13 | 93 | 1009.8 |
| 20260506035230 | 10 | 150 | 1.6 | 6.4 | 0.05 | 0.41 | 0.13 | 93 | 1009.8 |
| 20260506034836 | 10 | 144 | 1.6 | 6.4 | 0.05 | 0.43 | 0.13 | 93 | 1009.8 |
| 20260506034336 | 10 | 120 | 1.6 | 9.7 | 0.05 | 0.46 | 0.13 | 93 | 1009.9 |
| 20260506034227 | 10 | 125 | 1.6 | 11.3 | 0.05 | 0.46 | 0.13 | 93 | 1009.9 |
| 20260506033836 | 10 | 163 | 1.6 | 11.3 | 0.05 | 0.48 | 0.13 | 93 | 1010.0 |
| 20260506033337 | 10 | 160 | 1.6 | 11.3 | 0.05 | 0.51 | 0.13 | 93 | 1010.0 |
| 20260506033227 | 10 | 157 | 1.6 | 11.3 | 0.05 | 0.51 | 0.13 | 93 | 1010.0 |
| 20260506032837 | 10 | 120 | 3.2 | 11.3 | 0.05 | 0.51 | 0.13 | 93 | 1010.1 |
| 20260506032337 | 10 | 97 | 1.6 | 11.3 | 0.05 | 0.53 | 0.13 | 93 | 1010.0 |
| 20260506032227 | 10 | 100 | 1.6 | 8.0 | 0.05 | 0.53 | 0.13 | 93 | 1010.1 |
| 20260506031837 | 10 | 116 | 0.0 | 8.0 | 0.05 | 0.56 | 0.13 | 93 | 1010.1 |
| 20260506031335 | 10 | 151 | 1.6 | 8.0 | 0.05 | 0.58 | 0.13 | 93 | 1010.4 |
| 20260506031227 | 10 | 132 | 1.6 | 8.0 | 0.05 | 0.58 | 0.13 | 93 | 1010.4 |
| 20260506030835 | 10 | 129 | 3.2 | 8.0 | 0.03 | 0.56 | 0.10 | 93 | 1010.4 |
| 20260506030615 | 10 | 157 | 1.6 | 8.0 | 0.03 | 0.58 | 0.10 | 93 | 1010.5 |
| 20260506030228 | 10 | 170 | 1.6 | 8.0 | 0.03 | 0.61 | 0.10 | 93 | 1010.5 |
| 20260506025836 | 10 | 145 | 1.6 | 6.4 | 0.00 | 0.58 | 0.08 | 93 | 1010.6 |
| 20260506025336 | 10 | 131 | 1.6 | 6.4 | 0.00 | 0.61 | 0.08 | 93 | 1010.7 |
| 20260506025226 | 10 | 135 | 1.6 | 6.4 | 0.00 | 0.61 | 0.08 | 93 | 1010.8 |
| 20260506024835 | 10 | 137 | 1.6 | 6.4 | 0.03 | 0.61 | 0.08 | 93 | 1010.8 |
| 20260506024336 | 10 | 94 | 0.0 | 4.8 | 0.03 | 0.64 | 0.08 | 93 | 1010.8 |
| 20260506024227 | 10 | 59 | 1.6 | 4.8 | 0.03 | 0.64 | 0.08 | 93 | 1010.9 |
| 20260506023837 | 10 | 346 | 1.6 | 6.4 | 0.05 | 0.66 | 0.08 | 93 | 1011.0 |
| 20260506023336 | 10 | 329 | 1.6 | 6.4 | 0.05 | 0.69 | 0.08 | 93 | 1010.9 |
| 20260506023227 | 10 | 327 | 1.6 | 6.4 | 0.05 | 0.71 | 0.08 | 93 | 1011.0 |
| 20260506022836 | 10 | 328 | 1.6 | 6.4 | 0.05 | 0.71 | 0.08 | 93 | 1010.9 |
| 20260506022336 | 10 | 321 | 1.6 | 6.4 | 0.05 | 0.71 | 0.08 | 93 | 1010.9 |
| 20260506022227 | 10 | 322 | 1.6 | 6.4 | 0.05 | 0.74 | 0.08 | 93 | 1011.0 |
| 20260506021836 | 10 | 334 | 1.6 | 4.8 | 0.05 | 0.74 | 0.08 | 93 | 1011.2 |
| 20260506021336 | 10 | 43 | 1.6 | 4.8 | 0.05 | 0.76 | 0.08 | 93 | 1011.2 |
| 20260506021228 | 10 | 75 | 1.6 | 4.8 | 0.05 | 0.76 | 0.08 | 93 | 1011.2 |
| 20260506020836 | 10 | 137 | 0.0 | 6.4 | 0.05 | 0.79 | 0.08 | 93 | 1011.4 |
| 20260506020337 | 10 | 142 | 0.0 | 6.4 | 0.05 | 0.79 | 0.08 | 93 | 1011.4 |
| 20260506020227 | 10 | 140 | 1.6 | 6.4 | 0.05 | 0.79 | 0.08 | 93 | 1011.4 |
| 20260506015832 | 10 | 128 | 1.6 | 6.4 | 0.05 | 0.79 | 0.08 | 93 | 1011.5 |
| 20260506015333 | 10 | 137 | 1.6 | 6.4 | 0.05 | 0.79 | 0.08 | 93 | 1011.6 |
| 20260506015226 | 10 | 133 | 1.6 | 6.4 | 0.05 | 0.79 | 0.08 | 93 | 1011.6 |
| 20260506014833 | 10 | 140 | 0.0 | 4.8 | 0.03 | 0.79 | 0.05 | 93 | 1011.6 |
| 20260506014332 | 10 | 131 | 0.0 | 4.8 | 0.03 | 0.79 | 0.05 | 93 | 1011.5 |
| 20260506014228 | 10 | 133 | 0.0 | 4.8 | 0.03 | 0.79 | 0.05 | 93 | 1011.5 |
| 20260506013831 | 10 | 128 | 1.6 | 4.8 | 0.00 | 0.76 | 0.05 | 93 | 1011.5 |
| 20260506013331 | 10 | 119 | 0.0 | 4.8 | 0.00 | 0.76 | 0.05 | 93 | 1011.5 |
| 20260506013225 | 10 | 119 | 0.0 | 4.8 | 0.00 | 0.76 | 0.05 | 93 | 1011.5 |
| 20260506012833 | 10 | 133 | 0.0 | 4.8 | 0.00 | 0.76 | 0.05 | 93 | 1011.6 |
| 20260506012331 | 10 | 144 | 0.0 | 4.8 | 0.03 | 0.76 | 0.05 | 93 | 1011.6 |
| 20260506012226 | 10 | 152 | 1.6 | 4.8 | 0.03 | 0.76 | 0.05 | 93 | 1011.6 |
| 20260506011831 | 10 | 156 | 0.0 | 4.8 | 0.03 | 0.76 | 0.05 | 93 | 1011.6 |
| 20260506011331 | 10 | 152 | 0.0 | 6.4 | 0.03 | 0.76 | 0.05 | 93 | 1011.8 |
| 20260506011225 | 10 | 144 | 0.0 | 6.4 | 0.03 | 0.76 | 0.05 | 93 | 1011.8 |
| 20260506011103 | 10 | 82 | 0.0 | 6.4 | 0.03 | 0.76 | 0.05 | 93 | 1011.8 |
| 20260506010331 | 10 | 86 | 1.6 | 6.4 | 0.03 | 0.76 | 0.05 | 93 | 1012.0 |
| 20260506010223 | 10 | 100 | 1.6 | 6.4 | 0.03 | 0.76 | 0.05 | 93 | 1012.0 |
| 20260506010104 | 10 | 130 | 1.6 | 6.4 | 0.03 | 0.76 | 0.05 | 93 | 1012.1 |
| 20260506005608 | 10 | 131 | 1.6 | 6.4 | 0.03 | 0.76 | 0.05 | 92 | 1012.3 |
| 20260506005223 | 10 | 136 | 1.6 | 6.4 | 0.03 | 0.76 | 0.05 | 92 | 1012.4 |
| 20260506005103 | 10 | 138 | 1.6 | 6.4 | 0.05 | 0.76 | 0.05 | 92 | 1012.4 |
| 20260506004332 | 10 | 130 | 1.6 | 8.0 | 0.05 | 0.76 | 0.05 | 92 | 1012.5 |
| 20260506004224 | 10 | 129 | 1.6 | 8.0 | 0.05 | 0.76 | 0.05 | 92 | 1012.6 |
| 20260506003830 | 10 | 124 | 1.6 | 8.0 | 0.05 | 0.76 | 0.05 | 92 | 1012.7 |
| 20260506003326 | 10 | 123 | 1.6 | 8.0 | 0.05 | 0.76 | 0.05 | 92 | 1012.9 |
| 20260506003222 | 10 | 119 | 1.6 | 8.0 | 0.05 | 0.76 | 0.05 | 92 | 1012.9 |
| 20260506003058 | 10 | 110 | 1.6 | 8.0 | 0.05 | 0.76 | 0.05 | 92 | 1012.9 |
| 20260506002326 | 10 | 98 | 1.6 | 6.4 | 0.03 | 0.74 | 0.03 | 92 | 1012.9 |
| 20260506002222 | 10 | 91 | 1.6 | 6.4 | 0.03 | 0.74 | 0.03 | 92 | 1013.0 |
| 20260506001826 | 10 | 112 | 1.6 | 6.4 | 0.03 | 0.74 | 0.03 | 92 | 1013.1 |
| 20260506001325 | 10 | 133 | 1.6 | 4.8 | 0.03 | 0.74 | 0.03 | 92 | 1013.1 |
| 20260506001222 | 10 | 138 | 1.6 | 4.8 | 0.03 | 0.74 | 0.03 | 92 | 1013.2 |
| 20260506001059 | 10 | 127 | 0.0 | 3.2 | 0.03 | 0.74 | 0.03 | 92 | 1013.2 |
| 20260506000326 | 10 | 29 | 0.0 | 1.6 | 0.03 | 0.74 | 0.03 | 92 | 1013.1 |
| 20260506000223 | 10 | 16 | 0.0 | 1.6 | 0.03 | 0.74 | 0.03 | 92 | 1013.2 |
| 20260506000058 | 10 | 3 | 0.0 | 1.6 | 0.03 | 0.74 | 0.03 | 92 | 1013.2 |
| 20260505235324 | 10 | 2 | 0.0 | 1.6 | 0.03 | 0.74 | 0.03 | 92 | 1013.3 |
| 20260505235223 | 10 | 2 | 0.0 | 1.6 | 0.03 | 0.74 | 0.03 | 92 | 1013.3 |
| 20260505234822 | 10 | 5 | 0.0 | 1.6 | 0.00 | 0.71 | 0.00 | 92 | 1013.3 |
| 20260505234322 | 10 | 18 | 0.0 | 3.2 | 0.00 | 0.71 | 0.00 | 91 | 1013.3 |
| 20260505234221 | 10 | 21 | 0.0 | 3.2 | 0.00 | 0.71 | 0.00 | 91 | 1013.4 |
| 20260505233821 | 10 | 29 | 0.0 | 3.2 | 0.00 | 0.71 | 0.00 | 91 | 1013.3 |
| 20260505233320 | 10 | 24 | 0.0 | 4.8 | 0.00 | 0.71 | 0.00 | 91 | 1013.4 |
| 20260505233221 | 10 | 21 | 0.0 | 4.8 | 0.00 | 0.71 | 0.00 | 91 | 1013.5 |
| 20260505232818 | 10 | 21 | 0.0 | 4.8 | 0.00 | 0.71 | 0.00 | 91 | 1013.7 |
| 20260505232318 | 10 | 82 | 1.6 | 4.8 | 0.00 | 0.71 | 0.00 | 91 | 1013.7 |
| 20260505232221 | 10 | 98 | 1.6 | 4.8 | 0.00 | 0.71 | 0.00 | 91 | 1013.7 |
| 20260505231819 | 10 | 121 | 1.6 | 4.8 | 0.00 | 0.71 | 0.00 | 91 | 1013.7 |
| 20260505231318 | 10 | 123 | 0.0 | 4.8 | 0.00 | 0.71 | 0.00 | 91 | 1013.7 |
| 20260505231220 | 10 | 122 | 0.0 | 4.8 | 0.00 | 0.71 | 0.00 | 91 | 1013.7 |
| 20260505230817 | 10 | 132 | 1.6 | 4.8 | 0.00 | 0.71 | 0.00 | 91 | 1014.0 |
| 20260505230330 | 10 | 124 | 0.0 | 1.6 | 0.00 | 0.71 | 0.00 | 91 | 1014.0 |
| 20260505230325 | 10 | 134 | 0.0 | 4.8 | 0.00 | 0.71 | 0.00 | 91 | 1013.9 |
| 20260505230317 | 10 | 133 | 0.0 | 3.2 | 0.00 | 0.71 | 0.00 | 91 | 1013.9 |
| 20260505225318 | 10 | 121 | 0.0 | 1.6 | 0.00 | 0.71 | 0.00 | 91 | 1013.9 |
| 20260505225221 | 10 | 124 | 0.0 | 1.6 | 0.00 | 0.71 | 0.00 | 91 | 1013.9 |
| 20260505224817 | 10 | 136 | 0.0 | 1.6 | 0.00 | 0.71 | 0.00 | 91 | 1013.9 |
| 20260505224315 | 10 | 144 | 0.0 | 1.6 | 0.00 | 0.71 | 0.00 | 90 | 1013.9 |
| 20260505224221 | 10 | 144 | 0.0 | 1.6 | 0.00 | 0.71 | 0.00 | 90 | 1013.9 |
| 20260505223816 | 10 | 144 | 0.0 | 0.0 | 0.00 | 0.71 | 0.00 | 90 | 1013.9 |
| 20260505223317 | 10 | 144 | 0.0 | 1.6 | 0.00 | 0.71 | 0.00 | 91 | 1013.8 |
| 20260505223221 | 10 | 144 | 0.0 | 1.6 | 0.00 | 0.71 | 0.00 | 91 | 1013.8 |
| 20260505222832 | 10 | 144 | 0.0 | 1.6 | 0.00 | 0.71 | 0.00 | 91 | 1013.9 |
| 20260505222601 | 10 | 147 | 0.0 | 1.6 | 0.00 | 0.71 | 0.00 | 90 | 1013.9 |
| 20260505222315 | 10 | 148 | 0.0 | 1.6 | 0.00 | 0.71 | 0.00 | 90 | 1013.9 |
| 20260505221316 | 10 | 157 | 0.0 | 1.6 | 0.00 | 0.71 | 0.00 | 90 | 1014.1 |
| 20260505221219 | 10 | 151 | 0.0 | 1.6 | 0.00 | 0.71 | 0.00 | 90 | 1014.1 |
| 20260505220816 | 10 | 121 | 0.0 | 3.2 | 0.00 | 0.71 | 0.00 | 90 | 1014.2 |
| 20260505220314 | 10 | 79 | 0.0 | 4.8 | 0.00 | 0.71 | 0.00 | 90 | 1014.2 |
| 20260505220217 | 10 | 80 | 0.0 | 4.8 | 0.00 | 0.71 | 0.00 | 91 | 1014.2 |
| 20260505215813 | 10 | 101 | 0.0 | 4.8 | 0.00 | 0.71 | 0.71 | 91 | 1014.2 |
| 20260505215312 | 11 | 123 | 1.6 | 4.8 | 0.00 | 0.71 | 0.71 | 91 | 1014.3 |
| 20260505215218 | 11 | 123 | 1.6 | 4.8 | 0.00 | 0.71 | 0.71 | 91 | 1014.3 |
| 20260505215039 | 11 | 84 | 1.6 | 4.8 | 0.00 | 0.71 | 0.71 | 91 | 1014.3 |
| 20260505214311 | 11 | 33 | 0.0 | 3.2 | 0.00 | 0.71 | 0.71 | 91 | 1014.3 |
| 20260505214217 | 11 | 34 | 0.0 | 3.2 | 0.00 | 0.71 | 0.71 | 91 | 1014.3 |
| 20260505213813 | 11 | 87 | 0.0 | 3.2 | 0.00 | 0.74 | 0.71 | 91 | 1014.3 |
| 20260505213311 | 11 | 148 | 0.0 | 3.2 | 0.00 | 0.74 | 0.71 | 91 | 1014.3 |
| 20260505213217 | 11 | 156 | 0.0 | 3.2 | 0.00 | 0.74 | 0.71 | 91 | 1014.3 |
| 20260505213044 | 11 | 180 | 0.0 | 1.6 | 0.00 | 0.74 | 0.71 | 91 | 1014.2 |
| 20260505212310 | 11 | 257 | 0.0 | 1.6 | 0.00 | 0.76 | 0.71 | 91 | 1014.3 |
| 20260505212216 | 11 | 267 | 0.0 | 1.6 | 0.00 | 0.76 | 0.71 | 91 | 1014.3 |
| 20260505211810 | 11 | 284 | 0.0 | 0.0 | 0.00 | 0.76 | 0.71 | 91 | 1014.4 |
| 20260505211309 | 11 | 283 | 0.0 | 0.0 | 0.00 | 0.79 | 0.71 | 91 | 1014.4 |
| 20260505211215 | 11 | 283 | 0.0 | 0.0 | 0.00 | 0.79 | 0.71 | 91 | 1014.4 |
| 20260505210810 | 11 | 282 | 0.0 | 0.0 | 0.00 | 0.79 | 0.71 | 91 | 1014.6 |
| 20260505210310 | 11 | 282 | 0.0 | 0.0 | 0.00 | 0.81 | 0.71 | 91 | 1014.6 |
| 20260505210215 | 11 | 282 | 0.0 | 0.0 | 0.00 | 0.84 | 0.71 | 91 | 1014.6 |
| 20260505205810 | 11 | 282 | 0.0 | 0.0 | 0.00 | 0.84 | 0.71 | 91 | 1014.6 |
| 20260505205309 | 11 | 282 | 0.0 | 0.0 | 0.00 | 0.86 | 0.71 | 91 | 1014.7 |
| 20260505205215 | 11 | 282 | 0.0 | 1.6 | 0.00 | 0.86 | 0.71 | 91 | 1014.7 |
| 20260505205046 | 11 | 282 | 0.0 | 1.6 | 0.00 | 0.89 | 0.71 | 91 | 1014.7 |
| 20260505204310 | 11 | 282 | 0.0 | 1.6 | 0.00 | 0.89 | 0.71 | 91 | 1014.7 |
| 20260505204218 | 11 | 283 | 0.0 | 1.6 | 0.00 | 0.89 | 0.71 | 91 | 1014.7 |
| 20260505203814 | 11 | 318 | 0.0 | 1.6 | 0.00 | 0.89 | 0.71 | 91 | 1014.8 |
| 20260505203308 | 11 | 5 | 0.0 | 1.6 | 0.00 | 0.89 | 0.71 | 90 | 1014.7 |
| 20260505203215 | 11 | 9 | 0.0 | 0.0 | 0.00 | 0.89 | 0.71 | 90 | 1014.7 |
| 20260505202808 | 11 | 9 | 0.0 | 0.0 | 0.00 | 0.89 | 0.71 | 90 | 1014.7 |
| 20260505202308 | 11 | 9 | 0.0 | 0.0 | 0.00 | 0.89 | 0.71 | 90 | 1014.7 |
| 20260505202216 | 11 | 9 | 0.0 | 0.0 | 0.00 | 0.89 | 0.71 | 90 | 1014.7 |
| 20260505201809 | 11 | 9 | 0.0 | 0.0 | 0.00 | 0.89 | 0.71 | 90 | 1014.6 |
| 20260505201308 | 11 | 9 | 0.0 | 0.0 | 0.00 | 0.91 | 0.71 | 90 | 1014.6 |
| 20260505201215 | 11 | 9 | 0.0 | 0.0 | 0.00 | 0.91 | 0.71 | 90 | 1014.6 |
| 20260505200806 | 11 | 9 | 0.0 | 0.0 | 0.00 | 0.94 | 0.71 | 90 | 1014.6 |
| 20260505200306 | 11 | 9 | 0.0 | 0.0 | 0.00 | 0.97 | 0.71 | 90 | 1014.5 |
| 20260505200215 | 11 | 9 | 0.0 | 0.0 | 0.00 | 0.99 | 0.71 | 90 | 1014.5 |
| 20260505195805 | 11 | 9 | 0.0 | 0.0 | 0.00 | 1.02 | 0.71 | 90 | 1014.6 |
| 20260505195306 | 11 | 9 | 0.0 | 1.6 | 0.00 | 1.07 | 0.71 | 89 | 1014.6 |
| 20260505195214 | 11 | 9 | 0.0 | 1.6 | 0.00 | 1.07 | 0.71 | 89 | 1014.6 |
| 20260505194807 | 11 | 9 | 0.0 | 1.6 | 0.00 | 1.09 | 0.71 | 89 | 1014.5 |
| 20260505194307 | 11 | 9 | 0.0 | 1.6 | 0.00 | 1.14 | 0.71 | 89 | 1014.5 |
| 20260505194213 | 11 | 9 | 0.0 | 1.6 | 0.00 | 1.17 | 0.71 | 89 | 1014.5 |
| 20260505193806 | 11 | 8 | 0.0 | 1.6 | 0.00 | 1.17 | 0.71 | 89 | 1014.5 |
| 20260505193306 | 11 | 347 | 0.0 | 1.6 | 0.00 | 1.19 | 0.71 | 89 | 1014.5 |
| 20260505193213 | 11 | 336 | 0.0 | 1.6 | 0.00 | 1.19 | 0.71 | 89 | 1014.4 |
| 20260505192806 | 11 | 289 | 0.0 | 1.6 | 0.00 | 1.22 | 0.71 | 89 | 1014.5 |
| 20260505192539 | 11 | 272 | 0.0 | 0.0 | 0.00 | 1.24 | 0.71 | 88 | 1014.4 |
| 20260505192212 | 11 | 272 | 0.0 | 0.0 | 0.00 | 1.24 | 0.71 | 88 | 1014.4 |
| 20260505191806 | 11 | 272 | 0.0 | 1.6 | 0.00 | 1.27 | 0.71 | 88 | 1014.5 |
| 20260505191308 | 11 | 272 | 0.0 | 1.6 | 0.00 | 1.27 | 0.71 | 88 | 1014.5 |
| 20260505191211 | 11 | 272 | 0.0 | 1.6 | 0.00 | 1.27 | 0.71 | 88 | 1014.5 |
| 20260505190806 | 11 | 277 | 0.0 | 1.6 | 0.00 | 1.27 | 0.71 | 88 | 1014.6 |
| 20260505190306 | 11 | 314 | 0.0 | 3.2 | 0.00 | 1.27 | 0.71 | 88 | 1014.5 |
| 20260505190212 | 11 | 321 | 0.0 | 3.2 | 0.00 | 1.27 | 0.71 | 88 | 1014.5 |
| 20260505185806 | 11 | 335 | 0.0 | 3.2 | 0.00 | 1.27 | 0.71 | 88 | 1014.5 |
| 20260505185305 | 11 | 304 | 0.0 | 3.2 | 0.00 | 1.27 | 0.71 | 88 | 1014.4 |
| 20260505185208 | 11 | 297 | 0.0 | 3.2 | 0.00 | 1.27 | 0.71 | 88 | 1014.3 |
| 20260505184806 | 11 | 154 | 0.0 | 3.2 | 0.00 | 1.27 | 0.71 | 88 | 1014.3 |
| 20260505184306 | 11 | 122 | 0.0 | 1.6 | 0.00 | 1.27 | 0.71 | 88 | 1014.3 |
| 20260505184208 | 11 | 122 | 0.0 | 1.6 | 0.00 | 1.27 | 0.71 | 88 | 1014.3 |
| 20260505183805 | 11 | 120 | 0.0 | 1.6 | 0.00 | 1.27 | 0.71 | 88 | 1014.4 |
| 20260505183307 | 11 | 111 | 0.0 | 1.6 | 0.00 | 1.30 | 0.71 | 88 | 1014.5 |
| 20260505183208 | 11 | 109 | 0.0 | 1.6 | 0.00 | 1.30 | 0.71 | 88 | 1014.4 |
| 20260505182807 | 11 | 100 | 0.0 | 1.6 | 0.00 | 1.32 | 0.71 | 87 | 1014.4 |
| 20260505182307 | 11 | 97 | 0.0 | 1.6 | 0.00 | 1.35 | 0.71 | 87 | 1014.4 |
| 20260505182209 | 11 | 95 | 0.0 | 1.6 | 0.00 | 1.35 | 0.71 | 87 | 1014.4 |
| 20260505181807 | 11 | 89 | 0.0 | 1.6 | 0.00 | 1.37 | 0.71 | 87 | 1014.3 |
| 20260505181307 | 11 | 81 | 0.0 | 1.6 | 0.00 | 1.37 | 0.71 | 88 | 1014.3 |
| 20260505181208 | 11 | 81 | 0.0 | 1.6 | 0.00 | 1.40 | 0.71 | 87 | 1014.3 |
| 20260505180807 | 11 | 120 | 0.0 | 1.6 | 0.00 | 1.42 | 0.71 | 87 | 1014.2 |
| 20260505180306 | 11 | 215 | 0.0 | 1.6 | 0.00 | 1.45 | 0.71 | 87 | 1014.1 |
| 20260505180213 | 11 | 220 | 0.0 | 1.6 | 0.00 | 1.45 | 0.71 | 87 | 1014.2 |
| 20260505180043 | 12 | 220 | 0.0 | 1.6 | 0.00 | 1.47 | 0.71 | 86 | 1014.3 |
| 20260505175541 | 12 | 220 | 0.0 | 3.2 | 0.00 | 1.50 | 0.71 | 86 | 1014.3 |
| 20260505175208 | 12 | 221 | 0.0 | 3.2 | 0.00 | 1.50 | 0.71 | 86 | 1014.3 |
| 20260505174807 | 12 | 224 | 0.0 | 3.2 | 0.00 | 1.55 | 0.71 | 86 | 1014.2 |
| 20260505174305 | 12 | 223 | 0.0 | 3.2 | 0.00 | 1.55 | 0.71 | 85 | 1014.1 |
| 20260505174206 | 12 | 220 | 0.0 | 3.2 | 0.00 | 1.55 | 0.71 | 85 | 1014.1 |
| 20260505173806 | 12 | 214 | 0.0 | 9.7 | 0.00 | 1.57 | 0.71 | 85 | 1014.1 |
| 20260505173306 | 12 | 216 | 0.0 | 9.7 | 0.00 | 1.57 | 0.71 | 84 | 1014.1 |
| 20260505173208 | 12 | 219 | 0.0 | 9.7 | 0.00 | 1.60 | 0.71 | 85 | 1014.2 |
| 20260505173035 | 12 | 198 | 1.6 | 9.7 | 0.00 | 1.63 | 0.71 | 85 | 1014.3 |
| 20260505172306 | 12 | 136 | 1.6 | 9.7 | 0.00 | 1.65 | 0.71 | 84 | 1014.3 |
| 20260505172207 | 12 | 131 | 1.6 | 9.7 | 0.00 | 1.65 | 0.71 | 84 | 1014.3 |
| 20260505171806 | 12 | 177 | 1.6 | 4.8 | 0.00 | 1.65 | 0.71 | 83 | 1014.3 |
| 20260505171305 | 12 | 217 | 1.6 | 4.8 | 0.00 | 1.70 | 0.71 | 84 | 1014.2 |
| 20260505171207 | 12 | 225 | 1.6 | 4.8 | 0.00 | 1.70 | 0.71 | 84 | 1014.2 |
| 20260505170805 | 12 | 242 | 1.6 | 3.2 | 0.00 | 1.75 | 0.71 | 85 | 1014.4 |
| 20260505170305 | 12 | 243 | 0.0 | 4.8 | 0.00 | 1.78 | 0.71 | 85 | 1014.3 |
| 20260505170207 | 12 | 225 | 0.0 | 4.8 | 0.00 | 1.78 | 0.71 | 85 | 1014.3 |
| 20260505165805 | 12 | 181 | 0.0 | 4.8 | 0.00 | 1.80 | 0.71 | 85 | 1014.4 |
| 20260505165306 | 12 | 221 | 0.0 | 8.0 | 0.00 | 1.83 | 0.71 | 85 | 1014.4 |
| 20260505165205 | 12 | 229 | 1.6 | 8.0 | 0.00 | 1.83 | 0.71 | 86 | 1014.4 |
| 20260505164806 | 12 | 241 | 1.6 | 8.0 | 0.00 | 1.85 | 0.71 | 85 | 1014.4 |
| 20260505164536 | 12 | 235 | 1.6 | 8.0 | 0.00 | 1.88 | 0.71 | 84 | 1014.6 |
| 20260505164205 | 12 | 232 | 1.6 | 8.0 | 0.00 | 1.88 | 0.71 | 84 | 1014.6 |
| 20260505163805 | 12 | 195 | 1.6 | 8.0 | 0.00 | 1.88 | 0.71 | 83 | 1014.5 |
| 20260505163305 | 12 | 76 | 1.6 | 4.8 | 0.00 | 1.91 | 0.71 | 83 | 1014.6 |
| 20260505163205 | 12 | 54 | 0.0 | 4.8 | 0.00 | 1.91 | 0.71 | 83 | 1014.6 |
| 20260505163037 | 12 | 0 | 1.6 | 9.7 | 0.00 | 1.91 | 0.71 | 83 | 1014.7 |
| 20260505162307 | 12 | 322 | 1.6 | 9.7 | 0.00 | 1.91 | 0.71 | 82 | 1014.6 |
| 20260505162205 | 12 | 320 | 1.6 | 9.7 | 0.00 | 1.91 | 0.71 | 82 | 1014.7 |
| 20260505161804 | 12 | 322 | 1.6 | 9.7 | 0.00 | 1.91 | 0.71 | 83 | 1014.7 |
| 20260505161302 | 12 | 278 | 1.6 | 9.7 | 0.00 | 1.93 | 0.71 | 82 | 1014.6 |
| 20260505161202 | 12 | 245 | 1.6 | 9.7 | 0.00 | 1.93 | 0.71 | 82 | 1014.6 |
| 20260505160803 | 12 | 212 | 0.0 | 4.8 | 0.00 | 1.93 | 0.71 | 82 | 1014.4 |
| 20260505160302 | 12 | 170 | 1.6 | 4.8 | 0.00 | 1.93 | 0.71 | 82 | 1014.4 |
| 20260505160203 | 12 | 167 | 1.6 | 4.8 | 0.00 | 1.93 | 0.71 | 83 | 1014.4 |
| 20260505153302 | 12 | 62 | 1.6 | 4.8 | 0.00 | 1.93 | 0.71 | 83 | 1014.3 |
| 20260505153202 | 12 | 58 | 1.6 | 4.8 | 0.00 | 1.93 | 0.71 | 83 | 1014.3 |
| 20260505152803 | 12 | 69 | 0.0 | 3.2 | 0.00 | 1.93 | 0.71 | 82 | 1014.4 |
| 20260505152533 | 12 | 71 | 0.0 | 4.8 | 0.00 | 1.93 | 0.71 | 81 | 1014.4 |
| 20260505152202 | 12 | 67 | 0.0 | 4.8 | 0.00 | 1.93 | 0.71 | 81 | 1014.4 |
| 20260505151759 | 12 | 36 | 0.0 | 4.8 | 0.00 | 1.93 | 0.71 | 82 | 1014.4 |
| 20260505151257 | 12 | 53 | 0.0 | 4.8 | 0.00 | 1.93 | 0.71 | 82 | 1014.4 |
| 20260505151202 | 12 | 62 | 0.0 | 4.8 | 0.00 | 1.93 | 0.71 | 82 | 1014.4 |
| 20260505150756 | 12 | 108 | 1.6 | 4.8 | 0.00 | 1.93 | 0.71 | 81 | 1014.5 |
| 20260505150256 | 12 | 127 | 0.0 | 4.8 | 0.00 | 1.93 | 0.71 | 81 | 1014.4 |
| 20260505150203 | 12 | 127 | 0.0 | 4.8 | 0.00 | 1.93 | 0.71 | 81 | 1014.5 |
| 20260505140250 | 12 | 173 | 0.0 | 3.2 | 0.00 | 1.96 | 0.71 | 81 | 1014.9 |
| 20260505140201 | 12 | 179 | 0.0 | 3.2 | 0.00 | 1.96 | 0.71 | 81 | 1015.0 |
| 20260505130200 | 12 | 24 | 0.0 | 3.2 | 0.00 | 2.01 | 0.71 | 84 | 1015.1 |
| 20260505124747 | 11 | 51 | 0.0 | 3.2 | 0.00 | 2.01 | 0.71 | 83 | 1015.2 |
| 20260505124513 | 11 | 69 | 0.0 | 4.8 | 0.00 | 2.01 | 0.71 | 82 | 1015.1 |
| 20260505124158 | 12 | 74 | 0.0 | 4.8 | 0.00 | 2.01 | 0.71 | 82 | 1015.2 |
| 20260505123741 | 12 | 107 | 0.0 | 4.8 | 0.00 | 2.01 | 0.71 | 81 | 1015.2 |
| 20260505123242 | 12 | 157 | 0.0 | 4.8 | 0.00 | 2.01 | 0.71 | 81 | 1015.2 |
| 20260505123158 | 12 | 160 | 0.0 | 4.8 | 0.00 | 2.01 | 0.71 | 82 | 1015.1 |
| 20260505122739 | 12 | 146 | 0.0 | 4.8 | 0.00 | 2.01 | 0.71 | 81 | 1015.2 |
| 20260505122511 | 12 | 137 | 0.0 | 4.8 | 0.00 | 2.03 | 0.71 | 82 | 1015.3 |
| 20260505122158 | 12 | 136 | 0.0 | 4.8 | 0.00 | 2.03 | 0.71 | 82 | 1015.3 |
| 20260505121739 | 12 | 134 | 0.0 | 4.8 | 0.00 | 2.03 | 0.71 | 82 | 1015.3 |
| 20260505121238 | 11 | 134 | 1.6 | 4.8 | 0.00 | 2.03 | 0.71 | 81 | 1015.2 |
| 20260505121159 | 12 | 132 | 1.6 | 4.8 | 0.00 | 2.03 | 0.71 | 81 | 1015.3 |
| 20260505120738 | 12 | 134 | 0.0 | 4.8 | 0.00 | 2.03 | 0.71 | 83 | 1015.2 |
| 20260505120508 | 11 | 137 | 1.6 | 4.8 | 0.00 | 2.03 | 0.71 | 81 | 1015.2 |
| 20260505120159 | 11 | 142 | 1.6 | 4.8 | 0.00 | 2.03 | 0.71 | 81 | 1015.3 |
| 20260505115737 | 11 | 154 | 1.6 | 4.8 | 0.00 | 2.03 | 0.71 | 81 | 1015.2 |
| 20260505115244 | 11 | 137 | 0.0 | 3.2 | 0.00 | 2.03 | 0.71 | 82 | 1015.2 |
| 20260505115237 | 11 | 150 | 0.0 | 4.8 | 0.00 | 2.03 | 0.71 | 82 | 1015.3 |
| 20260505115231 | 11 | 148 | 0.0 | 3.2 | 0.00 | 2.03 | 0.71 | 82 | 1015.2 |
| 20260505114236 | 11 | 137 | 0.0 | 3.2 | 0.00 | 2.03 | 0.71 | 82 | 1015.5 |
| 20260505114156 | 11 | 136 | 0.0 | 3.2 | 0.00 | 2.03 | 0.71 | 82 | 1015.3 |
| 20260505113744 | 11 | 144 | 0.0 | 3.2 | 0.00 | 2.03 | 0.71 | 81 | 1015.3 |
| 20260505113740 | 11 | 146 | 0.0 | 3.2 | 0.00 | 2.03 | 0.71 | 80 | 1015.3 |
| 20260505113156 | 11 | 150 | 0.0 | 3.2 | 0.00 | 2.03 | 0.71 | 81 | 1015.3 |
| 20260505112736 | 11 | 148 | 0.0 | 3.2 | 0.00 | 2.03 | 0.71 | 81 | 1015.3 |
| 20260505112513 | 11 | 164 | 0.0 | 3.2 | 0.00 | 2.03 | 0.71 | 80 | 1015.3 |
| 20260505112156 | 11 | 160 | 0.0 | 3.2 | 0.00 | 2.03 | 0.71 | 81 | 1015.5 |
| 20260505112009 | 11 | 167 | 0.0 | 3.2 | 0.00 | 2.03 | 0.71 | 80 | 1015.5 |
| 20260505111235 | 11 | 170 | 0.0 | 3.2 | 0.00 | 2.03 | 0.71 | 83 | 1015.6 |
| 20260505111157 | 11 | 173 | 0.0 | 3.2 | 0.00 | 2.03 | 0.71 | 83 | 1015.6 |
| 20260505111003 | 11 | 197 | 0.0 | 3.2 | 0.00 | 2.03 | 0.71 | 81 | 1015.6 |
| 20260505110236 | 11 | 222 | 0.0 | 3.2 | 0.00 | 2.03 | 0.71 | 82 | 1015.6 |
| 20260505110157 | 11 | 223 | 0.0 | 3.2 | 0.00 | 2.03 | 0.71 | 82 | 1015.6 |
| 20260505102157 | 10 | 140 | 0.0 | 3.2 | 0.03 | 2.03 | 0.71 | 87 | 1015.5 |
| 20260505101736 | 10 | 141 | 0.0 | 4.8 | 0.03 | 2.03 | 0.71 | 87 | 1015.3 |
| 20260505101236 | 10 | 145 | 0.0 | 4.8 | 0.03 | 2.03 | 0.71 | 88 | 1015.6 |
| 20260505101158 | 10 | 141 | 0.0 | 6.4 | 0.03 | 2.03 | 0.71 | 88 | 1015.3 |
| 20260505100740 | 10 | 124 | 0.0 | 6.4 | 0.03 | 2.03 | 0.71 | 88 | 1015.6 |
| 20260505100235 | 10 | 115 | 1.6 | 6.4 | 0.03 | 2.03 | 0.71 | 89 | 1015.6 |
| 20260505100157 | 10 | 116 | 1.6 | 6.4 | 0.03 | 2.03 | 0.71 | 89 | 1015.6 |
| 20260505095737 | 10 | 130 | 1.6 | 6.4 | 0.03 | 2.03 | 0.71 | 89 | 1015.6 |
| 20260505095504 | 10 | 139 | 1.6 | 6.4 | 0.03 | 2.03 | 0.71 | 88 | 1015.6 |
| 20260505095158 | 10 | 139 | 1.6 | 6.4 | 0.03 | 2.03 | 0.71 | 88 | 1015.6 |
| 20260505094734 | 10 | 141 | 1.6 | 6.4 | 0.03 | 2.03 | 0.71 | 88 | 1015.6 |
| 20260505094234 | 10 | 133 | 1.6 | 6.4 | 0.03 | 2.03 | 0.71 | 88 | 1015.5 |
| 20260505094157 | 10 | 129 | 1.6 | 6.4 | 0.03 | 2.03 | 0.71 | 88 | 1015.3 |
| 20260505094002 | 10 | 132 | 1.6 | 6.4 | 0.00 | 2.03 | 0.71 | 88 | 1015.5 |
| 20260505093231 | 10 | 39 | 1.6 | 6.4 | 0.00 | 2.03 | 0.71 | 88 | 1015.5 |
| 20260505093156 | 10 | 37 | 1.6 | 6.4 | 0.00 | 2.03 | 0.71 | 87 | 1015.3 |
| 20260505092732 | 10 | 65 | 1.6 | 4.8 | 0.00 | 2.03 | 0.71 | 87 | 1015.5 |
| 20260505092231 | 10 | 129 | 1.6 | 4.8 | 0.00 | 2.03 | 0.71 | 85 | 1015.2 |
| 20260505092157 | 10 | 130 | 1.6 | 4.8 | 0.00 | 2.03 | 0.71 | 85 | 1015.3 |
| 20260505091731 | 10 | 187 | 1.6 | 4.8 | 0.00 | 2.03 | 0.71 | 85 | 1015.2 |
| 20260505091230 | 10 | 258 | 0.0 | 4.8 | 0.00 | 2.03 | 0.71 | 85 | 1015.2 |
| 20260505091157 | 10 | 261 | 0.0 | 4.8 | 0.00 | 2.03 | 0.71 | 85 | 1015.1 |
| 20260505090731 | 10 | 258 | 0.0 | 4.8 | 0.00 | 2.03 | 0.71 | 85 | 1015.2 |
| 20260505090229 | 10 | 251 | 1.6 | 4.8 | 0.00 | 2.03 | 0.71 | 85 | 1015.2 |
| 20260505090158 | 10 | 250 | 1.6 | 4.8 | 0.00 | 2.03 | 0.71 | 85 | 1015.2 |
| 20260505085728 | 10 | 247 | 1.6 | 4.8 | 0.00 | 2.03 | 0.71 | 85 | 1015.1 |
| 20260505085228 | 10 | 253 | 1.6 | 8.0 | 0.00 | 2.03 | 0.71 | 84 | 1015.1 |
| 20260505085157 | 10 | 254 | 1.6 | 8.0 | 0.00 | 2.03 | 0.71 | 84 | 1015.1 |
| 20260505084957 | 10 | 263 | 0.0 | 8.0 | 0.00 | 2.03 | 0.71 | 85 | 1015.0 |
| 20260505084228 | 9 | 264 | 1.6 | 9.7 | 0.00 | 2.03 | 0.71 | 85 | 1014.9 |
| 20260505084157 | 9 | 263 | 1.6 | 9.7 | 0.00 | 2.03 | 0.71 | 85 | 1014.9 |
| 20260505083726 | 9 | 263 | 1.6 | 9.7 | 0.00 | 2.03 | 0.71 | 84 | 1014.8 |
| 20260505083226 | 9 | 262 | 3.2 | 9.7 | 0.00 | 2.03 | 0.71 | 85 | 1014.8 |
| 20260505083156 | 9 | 262 | 3.2 | 9.7 | 0.00 | 2.03 | 0.71 | 85 | 1014.8 |
| 20260505082726 | 9 | 259 | 4.8 | 9.7 | 0.00 | 2.03 | 0.71 | 84 | 1014.8 |
| 20260505082225 | 9 | 257 | 3.2 | 8.0 | 0.00 | 2.03 | 0.71 | 85 | 1014.8 |
| 20260505082158 | 9 | 256 | 3.2 | 8.0 | 0.00 | 2.03 | 0.71 | 86 | 1014.8 |
| 20260505081726 | 9 | 252 | 1.6 | 8.0 | 0.00 | 2.03 | 0.71 | 86 | 1014.7 |
| 20260505081225 | 9 | 252 | 1.6 | 6.4 | 0.00 | 2.03 | 0.71 | 86 | 1014.7 |
| 20260505081157 | 9 | 252 | 1.6 | 6.4 | 0.00 | 2.03 | 0.71 | 86 | 1014.7 |
| 20260505080726 | 9 | 251 | 3.2 | 6.4 | 0.00 | 2.03 | 0.71 | 87 | 1014.8 |
| 20260505080226 | 9 | 256 | 3.2 | 8.0 | 0.00 | 2.03 | 0.71 | 87 | 1014.8 |
| 20260505080157 | 9 | 257 | 3.2 | 8.0 | 0.00 | 2.03 | 0.71 | 87 | 1014.9 |
| 20260505075727 | 9 | 267 | 3.2 | 9.7 | 0.00 | 2.03 | 0.71 | 87 | 1014.7 |
| 20260505075723 | 9 | 259 | 3.2 | 9.7 | 0.00 | 2.03 | 0.71 | 87 | 1014.7 |
| 20260505075157 | 9 | 258 | 3.2 | 9.7 | 0.00 | 2.03 | 0.71 | 87 | 1014.7 |
| 20260505074726 | 9 | 249 | 4.8 | 11.3 | 0.00 | 2.03 | 0.71 | 87 | 1014.7 |
| 20260505074226 | 9 | 257 | 3.2 | 11.3 | 0.00 | 2.03 | 0.71 | 86 | 1014.8 |
| 20260505074157 | 9 | 259 | 3.2 | 11.3 | 0.00 | 2.03 | 0.71 | 86 | 1014.8 |
| 20260505073725 | 9 | 268 | 3.2 | 11.3 | 0.00 | 2.03 | 0.71 | 85 | 1014.6 |
| 20260505073226 | 8 | 266 | 3.2 | 11.3 | 0.00 | 2.03 | 0.71 | 84 | 1014.7 |
| 20260505073156 | 8 | 267 | 3.2 | 11.3 | 0.00 | 2.03 | 0.71 | 84 | 1014.7 |
| 20260505072725 | 8 | 272 | 3.2 | 9.7 | 0.00 | 2.03 | 0.71 | 86 | 1014.7 |
| 20260505072226 | 8 | 275 | 3.2 | 8.0 | 0.03 | 2.03 | 0.71 | 86 | 1014.7 |
| 20260505072157 | 8 | 274 | 3.2 | 8.0 | 0.03 | 2.03 | 0.71 | 85 | 1014.7 |
| 20260505071735 | 8 | 273 | 1.6 | 11.3 | 0.03 | 2.03 | 0.71 | 85 | 1014.7 |
| 20260505071730 | 8 | 262 | 1.6 | 9.7 | 0.03 | 2.03 | 0.71 | 85 | 1014.7 |
| 20260505071158 | 8 | 274 | 1.6 | 11.3 | 0.03 | 2.03 | 0.71 | 85 | 1014.6 |
| 20260505070724 | 8 | 285 | 3.2 | 11.3 | 0.03 | 2.03 | 0.71 | 84 | 1014.6 |
| 20260505070224 | 8 | 279 | 3.2 | 11.3 | 0.03 | 2.03 | 0.71 | 83 | 1014.7 |
| 20260505070157 | 8 | 279 | 3.2 | 11.3 | 0.03 | 2.03 | 0.71 | 83 | 1014.7 |
| 20260505065724 | 8 | 289 | 3.2 | 12.9 | 0.03 | 2.03 | 0.71 | 82 | 1014.7 |
| 20260505065225 | 8 | 286 | 1.6 | 12.9 | 0.03 | 2.03 | 0.71 | 84 | 1014.8 |
| 20260505065156 | 8 | 287 | 1.6 | 12.9 | 0.03 | 2.03 | 0.71 | 84 | 1014.8 |
| 20260505064722 | 8 | 278 | 3.2 | 12.9 | 0.03 | 2.03 | 0.71 | 83 | 1014.7 |